Other Public Products
Issued by NWS Grand Forks, ND

Home | Current Version | Previous Version | Text Only | Print | Product List | Glossary On
Versions: 1 2 3 4 5 6 7 8 9 10 11 12 13 14 15 16 17 18 19 20 21 22 23 24 25 26 27 28 29 30 31 32 33 34 35 36 37 38 39 40 41 42 43 44 45 46 47 48 49 50
000
FPUS83 KFGF 140810
OPUFGF
PRAIRIE TO PINES WEATHER ROUNDUP
NATIONAL WEATHER SERVICE EASTERN NORTH DAKOTA/GRAND FORKS ND
200 AM CST THU DEC 14 2017

 **SATELLITE DATA USED TO AUGMENT SKY COVER AT AUTOMATED STATIONS**
 *****  WEATHER ACROSS EASTERN NORTH DAKOTA  *****

CITY           SKY/WX    TMP DP  RH WIND       PRES   REMARKS
GRAND FORKS    CLOUDY    18  13  80 CALM      29.99F
GRND FORKS AFB CLOUDY    17  13  82 CALM      29.99S
GRND FORKS NWS   N/A     16 N/A N/A N1          N/A
BUXTON         NOT AVBL
DEVILS LAKE    CLOUDY    21  18  88 S3        29.95F
FARGO          CLOUDY    19  14  81 NE3       30.00F
WAHPETON ARPT    N/A     19  14  79 N6        30.01S WCI  11
$$

 *****  WEATHER ACROSS CENTRAL AND WESTERN NORTH DAKOTA  *****

CITY           SKY/WX    TMP DP  RH WIND       PRES   REMARKS
JAMESTOWN      CLOUDY    26  25  96 SW5       29.94F WCI  20
BISMARCK       CLOUDY    27  24  89 CALM      29.97F
MINOT          CLOUDY    33  28  81 W15       29.94S WCI  23
MINOT AFB      CLOUDY    32  28  86 NW13      29.93S WCI  22
GARRISON         N/A     32  29  88 NW17      29.95S WCI  21
WILLISTON      MOCLDY    33  27  78 NW10      30.03S WCI  25
DICKINSON      CLOUDY    33  25  72 NW13      29.97S WCI  24
HETTINGER      CLOUDY    34  25  69 NW20      30.00F WCI  23
$$

 *****  OTHER OBSERVATIONS NORTHEAST NORTH DAKOTA  *****

CITY           SKY/WX    TMP DP  RH WIND       PRES   REMARKS
WALHALLA       FAIR      19  19 100 W6        29.96F WCI  11
LANGDON        CLOUDY    19  19 100 NW3       29.93F
CAVALIER       CLOUDY    18  16  93 SW6       29.97S WCI   9
GRAFTON        CLOUDY    18  14  86 S6        30.00F WCI   9
CANDO          CLOUDY    21  21 100 S7        29.95F WCI  13
FORT TOTTEN      N/A     21  19  90 SE2       29.95S
ROLLA          CLOUDY    23  23 100 MISG      29.92S
RUGBY          MIX PCPN  28  28 100 CALM      29.93R
 ***** THE ABOVE OBSERVATIONS ARE NON NWS ARE NOT QUALITY
        CONTROLLED AND MAY MIS-REPORT RAIN FOR SNOW...
$$

 *****  OTHER OBSERVATIONS SOUTHEAST NORTH DAKOTA *****

CITY           SKY/WX    TMP DP  RH WIND       PRES   REMARKS
COOPERSTOWN    CLOUDY    21  19  93 N8        29.97S WCI  12
VALLEY CITY    CLOUDY    21  21 100 CALM      29.98S
OAKES            N/A     23  23 100 CALM      29.97F
GWINNER          N/A     21  18  86 CALM      29.98F
SHEYENNE NWR     N/A     19  15  85 CALM      29.95S
BUFFALO        NOT AVBL
WYNDMERE       NOT AVBL
 ***** THE ABOVE OBSERVATIONS ARE NON NWS ARE NOT QUALITY
       CONTROLLED AND MAY MIS-REPORT RAIN FOR SNOW...
$$

  *****  WEATHER ACROSS NORTHERN MINNESOTA  *****

CITY           SKY/WX    TMP DP  RH WIND       PRES   REMARKS
FLAG ISLAND    CLOUDY     9   7  92 W7        29.93S WCI  -3
WARROAD        LGT SNOW  10   7  85 CALM      29.95S
ROSEAU         FLURRIES  14   9  79 W7        29.95S WCI   4
HALLOCK        CLOUDY    18  14  86 SW5       29.96F WCI  11
THF RVR FALLS  FLURRIES  12  10  92 SW3       29.97F
HALSTAD        NOT AVBL
FOSSTON        FLURRIES  10   9  92 CALM      29.96F
BAUDETTE       CLOUDY     6   4  91 CALM      29.94R
WASKISH        FLURRIES  12  10  92 W6        29.95R WCI   3
CROOKSTON      CLOUDY    16  12  86 CALM      30.01R
$$
  *****  WEATHER ACROSS CENTRAL AND WEST MINNESOTA  *****

CITY           SKY/WX    TMP DP  RH WIND       PRES   REMARKS
BEMIDJI        FLURRIES  11   8  87 W6        29.95R WCI   2
PARK RAPIDS    CLOUDY    13   9  84 W8        29.94R WCI   2
WADENA         CLOUDY    14  10  85 W5        29.95S WCI   6
DETROIT LAKES  CLOUDY    18  14  86 NW7       29.97R WCI   8
MOORHEAD       MIX PCPN  16  12  86 CALM      30.01S
FERGUS FALLS   CLOUDY    16  12  86 W8        30.02F WCI   5
ELBOW LAKE     CLOUDY    17  14  88 NW7       29.99S WCI   7
MORRIS MN      CLOUDY    19  16  86 NW8       29.99R WCI   9
STAPLES        CLOUDY    12  10  92 NW5       29.96S WCI   4
WHEATON        CLOUDY    19  16  86 N3        30.02F
$$
  *****  WEATHER ELSEWHERE ACROSS MINNESOTA  *****

CITY           SKY/WX    TMP DP  RH WIND       PRES   REMARKS
DULUTH         MOCLDY     8   6  92 N6        29.91R WCI  -2
INTRNTL FALLS  FLURRIES  13   9  84 SW6       29.92R WCI   4
ELY            FLURRIES  10   9  92 W3        29.89F
CLOQUET        MOCLDY     9   5  85 NW3       29.92S
BRAINERD       CLOUDY    16  11  80 W5        29.96R WCI   9
HIBBING        CLOUDY    14  11  87 W5        29.91S WCI   6
ALEXANDRIA     CLOUDY    18  14  84 W8        29.97R WCI   8
SAINT CLOUD    CLOUDY    10   8  92 W7        30.00R WCI  -1
MINNEAPOLIS    CLOUDY    20  16  84 W3        29.99S
$$

  *****  WEATHER ACROSS SOUTH DAKOTA  *****

CITY           SKY/WX    TMP DP  RH WIND       PRES   REMARKS
SIOUX FALLS    CLOUDY    29  27  92 CALM      29.98S
BROOKINGS      CLOUDY    26  24  92 NE3       29.97S
WATERTOWN      CLOUDY    25  24  96 NW3       29.95S
HURON          CLOUDY    33  27  78 NW7       29.98F
SISSETON         N/A     21  17  84 N6        29.99S WCI  13
ABERDEEN       CLOUDY    27  27 100 CALM      29.98F
MITCHELL       CLOUDY    34  26  72 W9        30.00F
PIERRE         FAIR      29  26  89 W9        30.01F WCI  20
MOBRIDGE       FAIR      28  25  88 CALM      29.98S
RAPID CITY     CLOUDY    37  26  64 NW15      30.07F
$$

  *****  SOME WEATHER IN NEARBY STATES *****

CITY           SKY/WX    TMP DP  RH WIND       PRES   REMARKS
GLASGOW MT     FAIR      27  24  89 NW14      30.16R WCI  16
GREAT FALLS MT CLOUDY    31  23  72 W8        30.39S WCI  23
CHEYENNE WY    LGT SNOW  27  25  92 N16G22    30.14S FOG     WCI  15
SCOTTSBLUFF NE CLOUDY    36  25  64 NW13      30.14F
OMAHA NE       CLOUDY    36  26  67 N8        30.01R
DES MOINES IA  CLOUDY    29  19  66 N9        29.98R WCI  20
DAVENPORT IA   CLOUDY    24  14  65 N10       29.97R WCI  14
CHICAGO IL     FAIR      23  15  71 N15       29.87R WCI  10
EAU CLAIRE WI  FAIR       4   1  88 S3        29.95S
LA CROSSE WI   FAIR      10   7  87 N5        29.99R WCI   2
$$

  *****  SOME NATIONAL WEATHER *****

CITY           SKY/WX    TMP DP  RH WIND       PRES   REMARKS
LA GUARDIA NY  LGT SNOW  25  21  85 E5        29.59F FOG     WCI  19
RALEIGH NC     FAIR      36  19  50 SW13      29.70S
ATLANTA GA     FAIR      41  27  57 W9        29.85S
NEW ORLEANS LA FAIR      47  43  86 CALM      29.98S
OKLAHOMA CITY  FAIR      40  24  53 N6        29.97R
ALBUQUERQUE NM FAIR      35   7  31 N7        30.00F
SALT LAKE CITY FAIR      26  24  92 N8        30.30F FOG     WCI  18
LOS ANGELES CA FAIR      58  37  45 E7        29.96S
BOISE ID       CLOUDY    26  22  84 SE15      30.47S WCI  14
SEATTLE WA     FAIR      40  37  89 CALM      30.39S
$$

*** WEATHER ACROSS MANITOBA...SASKATCHEWAN AND ONTARIO ***
                ***ONTARIO***

CITY           SKY/WX    TMP DP  RH WIND       PRES   REMARKS
GERALDTON      CRYSTALS  -8 -13  77 NW5       29.85R WCI -19
THUNDER BAY    PTCLDY    -6  -9  84 SW8       29.95R WCI -21
SIOUX LOOKOUT  MOCLDY    -8 -13  77 CALM      29.88S
TORONTO        MOCLDY    10   3  72 N18       29.64R WCI  -8
BIG TROUT LK   PTCLDY   -27 -33  75 CALM      29.88R
PICKLE LAKE    NOT AVBL
DRYDEN         CLOUDY     0  -4  85 SW3       29.88R
KENORA         CLOUDY     5   1  85 W3        29.90R
$$
                *** MANITOBA***

CITY           SKY/WX    TMP DP  RH WIND       PRES   REMARKS
BRANDON        FLURRIES  19  16  86 VRB2      29.96R
DAUPHIN        FLURRIES  19  19 100 N6        30.00R WCI  11
ISLAND LAKE    MOCLDY     5   0  78 W5        29.92S WCI  -4
PILOT MOUND      N/A     19  18  93 SW6         N/A  WCI  11
THE PAS        FLURRIES  18  12  79 NW13      30.04R WCI   4
THOMPSON       FLURRIES  -4  -8  84 NW6       29.99R WCI -16
WINNIPEG       LGT SNOW  14  10  85 W7        29.97R WCI   4
LYNN LAKE      CLOUDY     3   1  92 NW5       30.00F WCI  -6
CHURCHILL      LGT SNOW -11 -15  84 NW18      30.05R BLWGSNOWWCI -36
GILLAM         FLURRIES   0  -4  85 N12       29.97R WCI -18
$$
                ***SASKATCHEWAN***

CITY           SKY/WX    TMP DP  RH WIND       PRES   REMARKS
ESTEVAN        FLURRIES  30  28  93 NW16      29.99R WCI  19
KINDERSLEY     MOCLDY    30  27  86 NW13G21   30.23R WCI  20
LLOYDMINSTER   CLEAR     28  25  86 W12       30.22S WCI  18
PRINCE ALBERT  FLURRIES  30  25  80 NW13      30.13S WCI  20
REGINA         CLOUDY    32  27  80 N15G25    30.07R WCI  22
YORKTON        CLOUDY    28  25  86 N13       30.00R WC


USA.gov is the U.S. government's official web portal to all federal, state and local government web resources and services.